Weather History for CYKA - April, 2013

Change the Weather History Date:

Tuesday, April 16, 2013

  Actual Average Record
Temperature  
Mean Temperature 41 °F -  
Max Temperature 55 °F 59 °F 73 °F (1999)
Min Temperature 27 °F 37 °F 27 °F (2013)
Degree Days  
Heating Degree Days 24    
Moisture  
Dew Point 21 °F    
Average Humidity 44    
Maximum Humidity 74    
Minimum Humidity 13    
Precipitation  
Precipitation 0.00 in - - ()
Sea Level Pressure  
Sea Level Pressure 30.36 in    
Wind  
Wind Speed 4 mph ()    
Max Wind Speed 8 mph    
Max Gust Speed -    
Averages and records for this station are not official NWS values.
T = Trace of Precipitation, MM = Missing Value Source: Averaged Metar Reports

Daily Weather History Graph

Daily Weather History Graph

Search for Another Location

Airport or City:

Trip Planner

Search our weather history database for the weather conditions in past years. The results will help you decide how hot, cold, wet, or windy it might be!

Date:

Astronomy

Apr. 16, 2013 Rise Set
Actual Time 6:04 AM PDT 7:59 PM PDT
Civil Twilight 5:29 AM PDT 8:34 PM PDT
Nautical Twilight 4:46 AM PDT 9:17 PM PDT
Astronomical Twilight 3:58 AM PDT 10:06 PM PDT
Moon 10:11 AM PDT (4/16) 1:16 AM PDT (4/16)
Length of Visible Light 15h 04m
Length of Day
13h 54m
Waxing Crescent, 34% of the Moon is Illuminated
Apr 16
Waxing Crescent
Apr 18
First Quarter
Apr 25
Full
May 2
Last Quarter
May 9
New

Hourly Weather History & Observations

Time (PDT) Temp. Windchill Dew Point Humidity Pressure Visibility Wind Dir Wind Speed Gust Speed Precip Events Conditions
12:00 AM 35.6 °F 30.7 °F 24.8 °F 65% 30.26 in 40.0 mi ENE 5.8 mph - N/A   Partly Cloudy
1:00 AM 32.0 °F - 21.2 °F 64% 30.28 in 40.0 mi East 2.3 mph - N/A   Clear
2:00 AM 32.0 °F 26.4 °F 23.0 °F 69% 30.30 in 40.0 mi East 5.8 mph - N/A   Partly Cloudy
3:00 AM 33.8 °F 30.8 °F 21.2 °F 60% 30.31 in 40.0 mi NE 3.5 mph - N/A   Partly Cloudy
4:00 AM 30.2 °F - 21.2 °F 69% 30.34 in 40.0 mi East 2.3 mph - N/A   Clear
5:00 AM 31 °F - 21 °F 56% 30.36 in 37 mi NNW 2.3 mph - -   Scattered Clouds
5:00 AM 30.2 °F - 21.2 °F 69% 30.36 in 40.0 mi NNW 2.3 mph - N/A   Partly Cloudy
6:00 AM 28.4 °F 24.6 °F 21.2 °F 74% 30.37 in 40.0 mi North 3.5 mph - N/A   Partly Cloudy
7:00 AM 30.2 °F - 21.2 °F 69% 30.40 in 40.0 mi Calm Calm - N/A   Partly Cloudy
8:00 AM 33.8 °F - 24.8 °F 70% 30.43 in 40.0 mi Calm Calm - N/A   Partly Cloudy
9:00 AM 37.4 °F - 24.8 °F 60% 30.43 in 40.0 mi Calm Calm - N/A   Partly Cloudy
10:00 AM 42.8 °F 39.3 °F 24.8 °F 49% 30.42 in 40.0 mi West 5.8 mph - N/A   Partly Cloudy
11:00 AM 46 °F - 24 °F 28% 30.40 in 37 mi SW 4.6 mph - -   Scattered Clouds
11:00 AM 46.4 °F 44.3 °F 23.0 °F 40% 30.40 in 40.0 mi WSW 4.6 mph - N/A   Partly Cloudy
12:00 PM 50.0 °F - 21.2 °F 32% 30.38 in 40.0 mi SW 3.5 mph - N/A   Partly Cloudy
1:00 PM 51.8 °F - 14.0 °F 22% 30.37 in 40.0 mi West 6.9 mph - N/A   Scattered Clouds
2:00 PM 51.8 °F - 15.8 °F 24% 30.35 in 40.0 mi SE 3.5 mph - N/A   Scattered Clouds
3:00 PM 55.4 °F - 17.6 °F 23% 30.35 in 40.0 mi South 5.8 mph - N/A   Mostly Cloudy
4:00 PM 53.6 °F - 15.8 °F 22% 30.34 in 40.0 mi WNW 6.9 mph - N/A   Mostly Cloudy
5:00 PM 55 °F - 18 °F 13% 30.33 in 37 mi WSW 8.1 mph - -   Scattered Clouds
5:00 PM 55.4 °F - 17.6 °F 23% 30.33 in 40.0 mi WSW 8.1 mph - N/A   Scattered Clouds
6:00 PM 55.4 °F - 15.8 °F 21% 30.33 in 40.0 mi WNW 5.8 mph - N/A   Scattered Clouds
7:00 PM 53.6 °F - 17.6 °F 24% 30.32 in 40.0 mi WNW 5.8 mph - N/A   Mostly Cloudy
8:00 PM 50.0 °F - 21.2 °F 32% 30.34 in 40.0 mi SSW 4.6 mph - N/A   Scattered Clouds
9:00 PM 46.4 °F 43.5 °F 19.4 °F 34% 30.36 in 40.0 mi SW 5.8 mph - N/A   Scattered Clouds
10:00 PM 42.8 °F 40.1 °F 21.2 °F 42% 30.37 in 40.0 mi WSW 4.6 mph - N/A   Scattered Clouds
11:00 PM 41 °F - 21 °F 31% 30.38 in 37 mi WSW 2.3 mph - -   Scattered Clouds
11:00 PM 41.0 °F 39.0 °F 21.2 °F 45% 30.38 in 40.0 mi WSW 3.5 mph - N/A   Partly Cloudy